Location: Unspecified
(37.3333°N, 0.0000°E)
Time: 09:11:21
(UTC+00:00)

Tiangong 2 - Visible Passes

Search period start: 24 May 2019 00:00
Search period end: 03 June 2019 00:00
Orbit: 379 x 387 km, 42.8° (Epoch: 24 May)

Date Brightness Start Highest point End Pass type
(mag) Time Alt. Az. Time Alt. Az. Time Alt. Az.
24 May 2.8 20:09:55 10° WNW 20:12:45 31° N 20:15:36 10° ENE visible
24 May 3.1 21:47:02 10° WNW 21:49:05 28° NNW 21:49:05 28° NNW visible
25 May 2.9 20:46:56 10° WNW 20:49:44 29° N 20:51:43 15° ENE visible
25 May 4.3 22:23:38 10° WNW 22:23:53 12° WNW 22:23:53 12° WNW visible
26 May 2.9 19:46:45 10° WNW 19:49:32 28° N 19:52:18 10° ENE visible
26 May 2.1 21:23:38 10° WNW 21:26:28 43° N 21:26:28 43° N visible
27 May 2.5 20:23:36 10° WNW 20:26:29 33° N 20:29:00 12° ENE visible
27 May 3.7 22:00:15 10° WNW 22:01:10 18° WNW 22:01:10 18° WNW visible
28 May 1.2 21:00:12 10° WNW 21:03:19 66° NNE 21:03:42 57° ENE visible
29 May 2.0 20:00:11 10° WNW 20:03:12 43° NNE 20:06:12 10° E visible
29 May 3.1 21:36:57 10° W 21:38:25 23° W 21:38:25 23° W visible
30 May 1.0 20:36:46 10° WNW 20:39:54 74° SSW 20:40:58 37° SE visible
31 May 1.3 19:36:42 10° WNW 19:39:50 64° NNE 19:42:56 10° ESE visible
31 May 3.0 21:13:53 10° W 21:15:44 20° SW 21:15:44 20° SW visible
01 Jun 1.9 20:13:26 10° WNW 20:16:23 39° SSW 20:18:21 18° SSE visible
02 Jun 3.6 20:51:35 10° WSW 20:52:40 11° SW 20:53:12 11° SSW visible
